When you browse on this site, cookies collect data to enhance your experience and personalize the content and advertising you see.
Visit our Privacy Policy to learn more. By continuing to use the site, you agree to this use of cookies and data.
  • In Schweiz
  • Länderverzeichnis
  • Für 7 Tage
  • Wassertemperatur
  • Wetterkarte
  • Widgets
  • user-avatar
    Anmelden

    Stündliche Wetter Kecskemét

    Heute, 3 April, Freitag

    Zeit Temperatur Niederschläge Wind Luftdruck Luftfeuchtigkeit
    00:00 +4°C° 0 mm 1 m/S 749 mmHg 67%
    01:00 +3°C° 0 mm 2 m/S 749 mmHg 68%
    02:00 +3°C° 0 mm 2 m/S 749 mmHg 69%
    03:00 +2°C° 0 mm 2 m/S 748 mmHg 71%
    04:00 +2°C° 0 mm 2 m/S 748 mmHg 72%
    05:00 +3°C° 0 mm 2 m/S 749 mmHg 70%
    06:00 +3°C° 0 mm 2 m/S 749 mmHg 68%
    07:00 +4°C° 0 mm 2 m/S 749 mmHg 66%
    08:00 +6°C° 0 mm 2 m/S 749 mmHg 61%
    09:00 +8°C° 0 mm 2 m/S 750 mmHg 55%
    10:00 +10°C° 0 mm 2 m/S 750 mmHg 50%
    11:00 +12°C° 0 mm 2 m/S 750 mmHg 47%
    12:00 +13°C° 0 mm 2 m/S 750 mmHg 44%
    13:00 +14°C° 0 mm 2 m/S 750 mmHg 41%
    14:00 +14°C° 0 mm 2 m/S 750 mmHg 41%
    15:00 +15°C° 0 mm 2 m/S 749 mmHg 41%
    16:00 +15°C° 0 mm 2 m/S 749 mmHg 41%
    17:00 +13°C° 0 mm 2 m/S 749 mmHg 46%
    18:00 +12°C° 0 mm 2 m/S 750 mmHg 52%
    19:00 +9°C° 0 mm 2 m/S 750 mmHg 57%
    20:00 +9°C° 0 mm 2 m/S 751 mmHg 59%
    21:00 +8°C° 0 mm 2 m/S 751 mmHg 61%
    22:00 +7°C° 0 mm 2 m/S 752 mmHg 63%
    23:00 +7°C° 0 mm 2 m/S 752 mmHg 66%

    Morgen, 4 April, Samstag

    Zeit Temperatur Niederschläge Wind Luftdruck Luftfeuchtigkeit
    00:00 +6°C° 0 mm 2 m/S 752 mmHg 68%
    01:00 +6°C° 0 mm 2 m/S 753 mmHg 71%
    02:00 +5°C° 0 mm 2 m/S 753 mmHg 72%
    03:00 +4°C° 0 mm 3 m/S 753 mmHg 74%
    04:00 +3°C° 0 mm 3 m/S 753 mmHg 76%
    05:00 +4°C° 0 mm 3 m/S 754 mmHg 77%
    06:00 +5°C° 0 mm 4 m/S 754 mmHg 77%
    07:00 +5°C° 0 mm 4 m/S 755 mmHg 78%
    08:00 +7°C° 0 mm 4 m/S 755 mmHg 71%
    09:00 +10°C° 0 mm 4 m/S 755 mmHg 65%
    10:00 +12°C° 0 mm 4 m/S 755 mmHg 58%
    11:00 +13°C° 0 mm 4 m/S 756 mmHg 55%
    12:00 +14°C° 0 mm 4 m/S 756 mmHg 51%
    13:00 +14°C° 0 mm 4 m/S 756 mmHg 48%
    14:00 +14°C° 0 mm 4 m/S 756 mmHg 49%
    15:00 +14°C° 0 mm 5 m/S 755 mmHg 49%
    16:00 +14°C° 0 mm 5 m/S 755 mmHg 50%
    17:00 +12°C° 0 mm 4 m/S 756 mmHg 54%
    18:00 +10°C° 0 mm 4 m/S 756 mmHg 59%
    19:00 +9°C° 0 mm 3 m/S 757 mmHg 63%
    20:00 +8°C° 0 mm 3 m/S 757 mmHg 63%
    21:00 +7°C° 0 mm 4 m/S 758 mmHg 63%
    22:00 +6°C° 0 mm 4 m/S 758 mmHg 63%
    23:00 +6°C° 0 mm 4 m/S 759 mmHg 62%

    übermorgen, 5 April, Sonntag

    Zeit Temperatur Niederschläge Wind Luftdruck Luftfeuchtigkeit
    00:00 +5°C° 0 mm 5 m/S 759 mmHg 61%
    01:00 +5°C° 0 mm 5 m/S 759 mmHg 60%
    02:00 +3°C° 0 mm 5 m/S 759 mmHg 61%
    03:00 +3°C° 0 mm 6 m/S 760 mmHg 63%
    04:00 +3°C° 0 mm 6 m/S 760 mmHg 64%
    05:00 +3°C° 0 mm 6 m/S 760 mmHg 64%
    06:00 +4°C° 0 mm 6 m/S 760 mmHg 65%
    07:00 +4°C° 0 mm 6 m/S 760 mmHg 65%
    08:00 +7°C° 0 mm 6 m/S 761 mmHg 62%
    09:00 +9°C° 0 mm 6 m/S 761 mmHg 60%
    10:00 +10°C° 0 mm 6 m/S 761 mmHg 57%
    11:00 +13°C° 0 mm 5 m/S 761 mmHg 54%
    12:00 +14°C° 0 mm 5 m/S 761 mmHg 51%
    13:00 +15°C° 0 mm 4 m/S 761 mmHg 48%
    14:00 +15°C° 0 mm 4 m/S 760 mmHg 48%
    15:00 +15°C° 0 mm 4 m/S 760 mmHg 48%
    16:00 +15°C° 0 mm 4 m/S 760 mmHg 48%
    17:00 +14°C° 0 mm 4 m/S 760 mmHg 53%
    18:00 +12°C° 0 mm 4 m/S 760 mmHg 59%
    19:00 +11°C° 0 mm 4 m/S 761 mmHg 64%
    20:00 +10°C° 0 mm 4 m/S 761 mmHg 66%
    21:00 +8°C° 0 mm 4 m/S 761 mmHg 68%
    22:00 +8°C° 0 mm 3 m/S 762 mmHg 70%
    23:00 +7°C° 0 mm 4 m/S 762 mmHg 68%

    6 April, Montag

    Zeit Temperatur Niederschläge Wind Luftdruck Luftfeuchtigkeit
    00:00 +6°C° 0 mm 4 m/S 762 mmHg 65%
    01:00 +6°C° 0 mm 4 m/S 762 mmHg 63%
    02:00 +6°C° 0 mm 4 m/S 763 mmHg 63%
    03:00 +5°C° 0 mm 3 m/S 763 mmHg 63%
    04:00 +4°C° 0 mm 3 m/S 763 mmHg 63%
    05:00 +5°C° 0 mm 3 m/S 764 mmHg 60%
    06:00 +7°C° 0 mm 3 m/S 764 mmHg 56%
    07:00 +7°C° 0 mm 4 m/S 765 mmHg 53%
    08:00 +8°C° 0 mm 4 m/S 765 mmHg 48%
    09:00 +11°C° 0 mm 4 m/S 765 mmHg 44%
    10:00 +12°C° 0 mm 5 m/S 766 mmHg 39%
    11:00 +13°C° 0 mm 5 m/S 765 mmHg 38%
    12:00 +14°C° 0 mm 5 m/S 765 mmHg 38%
    13:00 +14°C° 0 mm 4 m/S 765 mmHg 37%
    14:00 +15°C° 0 mm 4 m/S 765 mmHg 38%
    15:00 +15°C° 0 mm 4 m/S 764 mmHg 39%
    16:00 +15°C° 0 mm 4 m/S 764 mmHg 40%
    17:00 +13°C° 0 mm 4 m/S 764 mmHg 46%
    18:00 +11°C° 0 mm 3 m/S 764 mmHg 51%
    19:00 +10°C° 0 mm 3 m/S 763 mmHg 57%
    20:00 +9°C° 0 mm 3 m/S 764 mmHg 58%
    21:00 +8°C° 0 mm 3 m/S 764 mmHg 58%
    22:00 +7°C° 0 mm 2 m/S 764 mmHg 59%
    23:00 +7°C° 0 mm 2 m/S 764 mmHg 55%

    7 April, Dienstag

    Zeit Temperatur Niederschläge Wind Luftdruck Luftfeuchtigkeit
    00:00 +5°C° 0 mm 3 m/S 764 mmHg 50%
    01:00 +4°C° 0 mm 3 m/S 764 mmHg 46%
    02:00 +4°C° 0 mm 3 m/S 764 mmHg 45%
    03:00 +3°C° 0 mm 3 m/S 764 mmHg 45%
    04:00 +3°C° 0 mm 3 m/S 765 mmHg 45%
    05:00 +3°C° 0 mm 3 m/S 765 mmHg 45%
    06:00 +4°C° 0 mm 4 m/S 765 mmHg 45%
    07:00 +5°C° 0 mm 4 m/S 765 mmHg 45%
    08:00 +7°C° 0 mm 4 m/S 765 mmHg 42%
    09:00 +8°C° 0 mm 4 m/S 766 mmHg 39%
    10:00 +11°C° 0 mm 4 m/S 766 mmHg 37%
    11:00 +12°C° 0 mm 3 m/S 765 mmHg 36%
    12:00 +13°C° 0 mm 3 m/S 765 mmHg 35%
    13:00 +14°C° 0 mm 3 m/S 765 mmHg 35%
    14:00 +16°C° 0 mm 3 m/S 765 mmHg 35%
    15:00 +16°C° 0 mm 2 m/S 764 mmHg 36%
    16:00 +16°C° 0 mm 2 m/S 764 mmHg 37%
    17:00 +14°C° 0 mm 2 m/S 764 mmHg 42%
    18:00 +12°C° 0 mm 1 m/S 764 mmHg 47%
    19:00 +10°C° 0 mm 1 m/S 764 mmHg 52%
    20:00 +10°C° 0 mm 1 m/S 764 mmHg 53%
    21:00 +8°C° 0 mm 0 m/S 764 mmHg 55%
    22:00 +8°C° 0 mm 0 m/S 764 mmHg 56%
    23:00 +7°C° 0 mm 0 m/S 764 mmHg 57%

    8 April, Mittwoch

    Zeit Temperatur Niederschläge Wind Luftdruck Luftfeuchtigkeit
    00:00 +8°C° 0 mm 1 m/S 764 mmHg 58%
    01:00 +8°C° 0 mm 1 m/S 765 mmHg 59%
    02:00 +7°C° 0 mm 1 m/S 764 mmHg 60%
    03:00 +7°C° 0 mm 1 m/S 764 mmHg 61%
    04:00 +7°C° 0 mm 1 m/S 764 mmHg 63%
    05:00 +8°C° 0 mm 1 m/S 765 mmHg 61%
    06:00 +9°C° 0 mm 1 m/S 765 mmHg 59%
    07:00 +10°C° 0 mm 1 m/S 765 mmHg 58%
    08:00 +11°C° 0 mm 1 m/S 765 mmHg 52%
    09:00 +13°C° 0 mm 2 m/S 765 mmHg 47%
    10:00 +15°C° 0 mm 2 m/S 765 mmHg 41%
    11:00 +16°C° 0 mm 2 m/S 764 mmHg 39%
    12:00 +17°C° 0 mm 2 m/S 764 mmHg 36%
    13:00 +18°C° 0 mm 2 m/S 764 mmHg 33%
    14:00 +18°C° 0 mm 2 m/S 763 mmHg 34%
    15:00 +18°C° 0 mm 2 m/S 763 mmHg 34%
    16:00 +18°C° 0 mm 2 m/S 762 mmHg 35%
    17:00 +16°C° 0 mm 2 m/S 762 mmHg 41%
    18:00 +15°C° 0 mm 2 m/S 762 mmHg 47%
    19:00 +13°C° 0 mm 1 m/S 762 mmHg 53%
    20:00 +12°C° 0 mm 1 m/S 762 mmHg 54%
    21:00 +12°C° 0 mm 1 m/S 762 mmHg 56%
    22:00 +10°C° 0 mm 0 m/S 762 mmHg 57%
    23:00 +11°C° 0 mm 1 m/S 762 mmHg 58%
    Mehr zeigen